Newcastle, Australia

5:09 PM AEDT on February 27, 2017 (GMT +1100)
Williamtown Military

Weather History for YWLM - August, 2013

Change the Weather History Date:

Monday, August 26, 2013

  Actual Average Record
Temperature  
Mean Temperature 58 °F -  
Max Temperature 71 °F - - ()
Min Temperature 44 °F - - ()
Degree Days  
Heating Degree Days 8    
Growing Degree Days 8 (Base 50)    
Moisture  
Dew Point 44 °F    
Average Humidity 68    
Maximum Humidity 100    
Minimum Humidity 21    
Precipitation  
Precipitation 0.00 in - - ()
Sea Level Pressure  
Sea Level Pressure 30.18 in    
Wind  
Wind Speed 6 mph ()    
Max Wind Speed 13 mph    
Max Gust Speed -    
Visibility 6.4 miles    
Events      
T = Trace of Precipitation, MM = Missing Value Source: Averaged Metar Reports

Daily Weather History Graph

Daily Weather History Graph

Search for Another Location

Airport or City:

Trip Planner

Search our weather history database for the weather conditions in past years. The results will help you decide how hot, cold, wet, or windy it might be!

Date:

Astronomy

Aug. 26, 2013 Rise Set
Actual Time 6:17 AM AEST 5:31 PM AEST
Civil Twilight 5:53 AM AEST 5:56 PM AEST
Nautical Twilight 5:24 AM AEST 6:25 PM AEST
Astronomical Twilight 4:55 AM AEST 6:53 PM AEST
Moon 10:54 PM AEST (8/26) 9:09 AM AEST (8/26)
Length of Visible Light 12h 03m
Length of Day
11h 13m
Waning Gibbous, 72% of the Moon is Illuminated
Aug 26
Waning Gibbous
Aug 28
Last Quarter
Sep 5
New
Sep 13
First Quarter
Sep 19
Full

Hourly Weather History & Observations

Time (AEST) Temp. Windchill Dew Point Humidity Pressure Visibility Wind Dir Wind Speed Gust Speed Precip Events Conditions
12:00 AM 47 °F - 45 °F 92% 30.19 in 2 mi Calm Calm - -  
12:00 AM 46.4 °F - 44.6 °F 93% 30.18 in 1.6 mi Calm Calm - N/A   Unknown
12:14 AM 48.2 °F - 46.4 °F 93% 30.18 in 6.2 mi WNW 5.8 mph - N/A   Unknown
12:30 AM 48.2 °F - 46.4 °F 93% 30.18 in 6.2 mi WNW 5.8 mph - N/A   Unknown
1:00 AM 48 °F - 44 °F 81% 30.19 in - NW 5.8 mph - -  
1:00 AM 48.2 °F - 44.6 °F 87% 30.18 in 6.2 mi NW 5.8 mph - N/A   Unknown
1:30 AM 48.2 °F - 42.8 °F 82% 30.18 in 6.2 mi WNW 8.1 mph - N/A   Unknown
2:00 AM 48.2 °F - 41.0 °F 76% 30.18 in 6.2 mi NW 9.2 mph - N/A   Unknown
2:30 AM 50.0 °F - 42.8 °F 76% 30.15 in 6.2 mi NW 10.4 mph - N/A   Unknown
3:00 AM 48 °F - 42 °F 71% 30.19 in - West 6.9 mph - -  
3:00 AM 48.2 °F - 41.0 °F 76% 30.18 in 6.2 mi West 6.9 mph - N/A   Unknown
3:30 AM 48.2 °F - 41.0 °F 76% 30.18 in 6.2 mi West 6.9 mph - N/A   Unknown
4:00 AM 47 °F - 41 °F 73% 30.20 in - WSW 4.6 mph - -  
4:00 AM 48.2 °F - 41.0 °F 76% 30.18 in 6.2 mi WSW 4.6 mph - N/A   Unknown
4:30 AM 46.4 °F 43.5 °F 41.0 °F 81% 30.18 in 6.2 mi West 5.8 mph - N/A   Unknown
5:00 AM 46.4 °F 42.9 °F 41.0 °F 81% 30.21 in 6.2 mi WNW 6.9 mph - N/A   Unknown
5:30 AM 44.6 °F 40.2 °F 39.2 °F 81% 30.21 in 6.2 mi NW 8.1 mph - N/A   Unknown
6:00 AM 46 °F - 40 °F 74% 30.25 in 25 mi NW 6.9 mph - -   Partly Cloudy
6:00 AM 46.4 °F 42.9 °F 41.0 °F 81% 30.24 in - NW 6.9 mph - N/A   Clear
6:30 AM 44.6 °F 40.2 °F 39.2 °F 81% 30.24 in 6.2 mi NW 8.1 mph - N/A   Partly Cloudy
7:00 AM 48 °F - 41 °F 70% 30.26 in - NW 9.2 mph - -  
7:00 AM 48.2 °F - 41.0 °F 76% 30.24 in 6.2 mi NW 9.2 mph - N/A   Partly Cloudy
7:30 AM 51.8 °F - 42.8 °F 71% 30.24 in 6.2 mi WNW 8.1 mph - N/A   Partly Cloudy
8:00 AM 53.6 °F - 42.8 °F 67% 30.24 in 6.2 mi WNW 8.1 mph - N/A   Partly Cloudy
8:30 AM 57.2 °F - 42.8 °F 59% 30.24 in - WNW 9.2 mph - N/A   Clear
9:00 AM 60 °F - 43 °F 42% 30.27 in 25 mi WNW 8.1 mph - -   Partly Cloudy
9:00 AM 60.8 °F - 42.8 °F 52% 30.24 in - WNW 8.1 mph - N/A   Clear
9:30 AM 60.8 °F - 42.8 °F 52% 30.24 in - West 9.2 mph - N/A   Clear
10:00 AM 63 °F - 43 °F 36% 30.25 in - West 9.2 mph - -  
10:00 AM 62.6 °F - 42.8 °F 48% 30.24 in - West 9.2 mph - N/A   Clear
10:30 AM 64.4 °F - 44.6 °F 49% 30.24 in - WNW 5.8 mph - N/A   Clear
11:00 AM 64.4 °F - 44.6 °F 49% 30.21 in - WSW 5.8 mph - N/A   Clear
11:30 AM 66.2 °F - 42.8 °F 43% 30.21 in - NW 8.1 mph - N/A   Clear
12:00 PM 67 °F - 42 °F 28% 30.20 in 25 mi WNW 8.1 mph - -   Partly Cloudy
12:00 PM 68.0 °F - 41.0 °F 37% 30.18 in - WNW 8.1 mph - N/A   Clear
12:30 PM 69.8 °F - 41.0 °F 35% 30.15 in - WSW 8.1 mph - N/A   Clear
1:00 PM 69 °F - 38 °F 21% 30.17 in - West 12.7 mph - -  
1:00 PM 69.8 °F - 39.2 °F 33% 30.15 in - West 12.7 mph - N/A   Clear
1:30 PM 71.6 °F - 39.2 °F 31% 30.15 in - WNW 6.9 mph - N/A   Clear
2:00 PM 71.6 °F - 39.2 °F 31% 30.12 in - WNW 9.2 mph - N/A   Clear
2:30 PM 71.6 °F - 37.4 °F 29% 30.12 in - West 10.4 mph - N/A   Clear
3:00 PM 67 °F - 48 °F 40% 30.14 in 19 mi SE 11.5 mph - -   Haze
3:00 PM 68.0 °F - 48.2 °F 49% 30.12 in - SE 11.5 mph - N/A   Clear
3:30 PM 66.2 °F - 48.2 °F 52% 30.12 in - SE 10.4 mph - N/A   Clear
4:00 PM 64 °F - 49 °F 49% 30.13 in - SSE 10.4 mph - -  
4:00 PM 64.4 °F - 50.0 °F 59% 30.12 in - SSE 10.4 mph - N/A   Clear
4:30 PM 64.4 °F - 50.0 °F 59% 30.12 in - ESE 11.5 mph - N/A   Clear
5:00 PM 62.6 °F - 50.0 °F 63% 30.12 in - ESE 8.1 mph - N/A   Clear
5:30 PM 60.8 °F - 51.8 °F 72% 30.12 in - East 5.8 mph - N/A   Clear
6:00 PM 59 °F - 51 °F 67% 30.15 in - ENE 5.8 mph - -  
6:00 PM 59.0 °F - 51.8 °F 77% 30.12 in - ENE 5.8 mph - N/A   Clear
6:30 PM 57.2 °F - 50.0 °F 77% 30.15 in - NNE 5.8 mph - N/A   Clear
7:00 PM 54 °F - 49 °F 77% 30.17 in - NE 2.3 mph - -  
7:00 PM 53.6 °F - 48.2 °F 82% 30.15 in - NE 2.3 mph - N/A   Clear
7:30 PM 53.6 °F - 50.0 °F 88% 30.18 in - Calm Calm - N/A   Clear
8:00 PM 51.8 °F - 48.2 °F 88% 30.15 in - NE 4.6 mph - N/A   Clear
8:30 PM 50.0 °F - 48.2 °F 94% 30.18 in 6.2 mi Calm Calm - N/A   Unknown
9:00 PM 49 °F - 47 °F 92% 30.19 in - ESE 1.2 mph - -  
9:00 PM 50.0 °F - 48.2 °F 94% 30.18 in 6.2 mi ESE 1.2 mph - N/A   Unknown
9:30 PM 48.2 °F - 46.4 °F 93% 30.15 in 6.2 mi ENE 3.5 mph - N/A   Unknown
10:00 PM 47 °F - 45 °F 92% 30.18 in - WSW 4.6 mph - -  
10:00 PM 48.2 °F - 44.6 °F 87% 30.18 in 6.2 mi WSW 4.6 mph - N/A   Unknown
10:30 PM 46.4 °F 44.3 °F 46.4 °F 100% 30.15 in 6.2 mi West 4.6 mph - N/A   Unknown
11:00 PM 46.4 °F 44.3 °F 44.6 °F 93% 30.15 in 6.2 mi NW 4.6 mph - N/A   Unknown
11:30 PM 46.4 °F 44.3 °F 44.6 °F 93% 30.18 in 6.2 mi NW 4.6 mph - N/A   Unknown